Latest Conditions
At L.F.Wade Int. Airport
Recorded at 8:55 am
Few Clouds
Temp.: 
24°C/76°F
Humidity: 
68%
Wind: 
W 9KT
or 10mph
UV Index: 
3
Island Observations
 
Observations
Sunday, May 28, 2017

Observations are in local time and taken at least once an hour, or upon the start and end of specified events such as showers and thunderstorms.

Time Sky / Weather Wind Speed/Gusts Temp. R.H. Pressure
     knots (mph)  °C (°F)  %  mb / "Hg
 08:55 Few Clouds  W 9/0 (10/0) 24(76) 68 1017 / 30.03
 07:55 Mostly Cloudy  W 10/0 (12/0) 24(75) 70 1017 / 30.03
 06:55 Few Clouds  W 8/0 (9/0) 23(73) 76 1016 / 30.01
 05:55 Few Clouds  W 8/0 (9/0) 23(73) 74 1016 / 30.00
 04:55 Mostly Cloudy  WNW 9/0 (10/0) 23(73) 77 1016 / 30.01
 03:55 Partly Cloudy  W 10/0 (12/0) 23(73) 75 1016 / 30.01
 02:55 Partly Cloudy  WNW 11/0 (13/0) 23(73) 75 1017 / 30.02
 01:55 Few Clouds  W 10/0 (12/0) 23(73) 74 1017 / 30.03
 00:55 Partly Cloudy  W 11/0 (13/0) 23(74) 73 1017 / 30.04
 23:55 Mostly Cloudy  W 11/0 (13/0) 23(74) 75 1018 / 30.05
 22:55 Partly Cloudy  WNW 10/0 (12/0) 23(74) 72 1018 / 30.06
 21:55 Partly Cloudy  WNW 12/0 (14/0) 23(74) 72 1017 / 30.04
 20:55 Mostly Cloudy  WNW 11/0 (13/0) 24(74) 72 1017 / 30.04
 19:55 Mostly Cloudy  WNW 14/0 (16/0) 24(75) 69 1017 / 30.03
 18:55 Mostly Cloudy  W 14/0 (16/0) 24(76) 68 1017 / 30.02
 17:55 Mostly Cloudy  W 14/0 (16/0) 25(78) 66 1017 / 30.02
 16:55 Partly Cloudy  W 14/0 (16/0) 26(78) 64 1016 / 30.01
 15:55 Partly Cloudy  W 14/0 (16/0) 26(79) 62 1016 / 30.01
 14:55 Partly Cloudy  W 14/0 (16/0) 26(78) 67 1017 / 30.02
 13:55 Mostly Cloudy  W 14/0 (16/0) 26(79) 66 1017 / 30.03
 12:55 Partly Cloudy  W 13/0 (15/0) 26(79) 66 1017 / 30.03
 11:55 Partly Cloudy  W 12/0 (14/0) 25(77) 69 1017 / 30.03
 10:55 Mostly Cloudy  W 12/0 (14/0) 25(77) 69 1017 / 30.03
 09:55 Mostly Cloudy  WNW 11/0 (13/0) 24(76) 70 1017 / 30.03
 08:55 Mostly Cloudy  WNW 10/0 (12/0) 24(75) 72 1017 / 30.03
 07:55 Mostly Cloudy  WNW 10/0 (12/0) 23(74) 73 1017 / 30.02
 06:55 Mostly Cloudy  NW 9/0 (10/0) 22(72) 76 1016 / 30.01
 05:55 Partly Cloudy  NW 10/0 (12/0) 22(72) 78 1016 / 30.00
 04:55 Partly Cloudy  NW 11/0 (13/0) 22(72) 79 1016 / 30.00
 03:55 Partly Cloudy  NW 13/0 (15/0) 22(72) 82 1016 / 29.99
 03:32 Mostly Cloudy  NW 13/0 (15/0) 23(73) 84 1016 / 29.99
 02:55 Overcast  WNW 10/0 (12/0) 23(73) 80 1016 / 30.00
 01:55 Mostly Cloudy Showers WNW 10/0 (12/0) 23(73) 82 1016 / 30.01
 00:55 Overcast Showers WSW 19/0 (22/0) 24(74) 88 1017 / 30.02
 00:22 Mostly Cloudy Showers WSW 19/0 (22/0) 24(74) 88 1017 / 30.02
 00:06 Mostly Cloudy Showers WSW 19/0 (22/0) 24(74) 88 1017 / 30.02
 23:55 Mostly Cloudy  WSW 17/0 (20/0) 23(74) 88 1017 / 30.02
 22:55 Mostly Cloudy  WSW 21/0 (24/0) 23(74) 88 1017 / 30.02
 22:12 Overcast Showers SW 21/0 (24/0) 23(74) 89 1017 / 30.02
 21:55 Overcast Rain SW 18/0 (21/0) 23(74) 89 1017 / 30.03
 20:55 Overcast Showers SW 19/0 (22/0) 23(74) 87 1017 / 30.03
 20:04 Overcast Showers SW 20/0 (23/0) 24(75) 84 1017 / 30.03
 19:55 Overcast Showers SW 20/0 (23/0) 24(76) 81 1017 / 30.03
 19:02 Overcast Showers SW 22/0 (25/0) 24(75) 83 1017 / 30.02
 18:55 Overcast Showers SW 21/0 (24/0) 24(76) 83 1017 / 30.02
 18:01 Overcast Showers SW 22/0 (25/0) 24(76) 82 1017 / 30.02
 17:55 Overcast Showers SW 22/0 (25/0) 24(76) 81 1017 / 30.03
 16:55 Overcast  SW 22/0 (25/0) 25(76) 79 1017 / 30.03
 16:43 Overcast  SW 23/0 (26/0) 25(76) 79 1017 / 30.03
 15:55 Overcast  SW 22/0 (25/0) 25(77) 78 1018 / 30.05
 14:55 Mostly Cloudy  SW 23/0 (26/0) 25(78) 77 1018 / 30.07
 13:55 Mostly Cloudy  SW 22/0 (25/0) 25(77) 77 1018 / 30.07
 12:55 Mostly Cloudy  SW 23/0 (26/0) 26(78) 75 1018 / 30.07
 11:55 Mostly Cloudy  SW 21/0 (24/0) 26(79) 76 1019 / 30.08
 10:55 Mostly Cloudy  SW 21/0 (24/0) 25(77) 79 1018 / 30.07
 09:55 Mostly Cloudy  SSW 19/0 (22/0) 25(77) 82 1019 / 30.08
 08:55 Mostly Cloudy  SSW 20/0 (23/0) 24(75) 85 1018 / 30.07
 07:55 Overcast  SSW 18/0 (21/0) 23(74) 86 1019 / 30.09
 06:55 Overcast  SW 17/0 (20/0) 23(74) 87 1020 / 30.11
 06:12 Mostly Cloudy Showers SW 17/0 (20/0) 23(74) 88 1019 / 30.10
 05:55 Overcast Showers SW 15/0 (17/0) 23(74) 88 1020 / 30.11
 05:10 Overcast  SW 14/0 (16/0) 23(74) 88 1020 / 30.11
 04:55 Overcast  SW 16/0 (18/0) 23(73) 88 1020 / 30.11
 03:55 Mostly Cloudy  SW 15/0 (17/0) 23(74) 88 1020 / 30.12
 02:55 Mostly Cloudy  SW 17/0 (20/0) 23(74) 89 1020 / 30.12
 02:22 Mostly Cloudy  SW 17/0 (20/0) 23(73) 89 1020 / 30.13
 01:55 Mostly Cloudy  SW 17/0 (20/0) 23(74) 88 1020 / 30.13
 00:55 Mostly Cloudy  SW 16/0 (18/0) 23(74) 88 1021 / 30.14
 23:55 Mostly Cloudy  SSW 17/0 (20/0) 23(74) 88 1020 / 30.13
 22:55 Mostly Cloudy  SSW 17/0 (20/0) 23(74) 88 1020 / 30.13
 21:55 Mostly Cloudy  SSW 16/0 (18/0) 23(74) 88 1020 / 30.11
 20:55 Mostly Cloudy  SSW 16/0 (18/0) 23(74) 88 1020 / 30.11
 20:20 Mostly Cloudy  SSW 16/0 (18/0) 23(74) 88 1020 / 30.11
 19:55 Mostly Cloudy  SSW 16/0 (18/0) 24(74) 87 1019 / 30.10
 19:38 Partly Cloudy  SSW 15/0 (17/0) 24(75) 86 1019 / 30.09
 19:25 Mostly Cloudy  SSW 16/0 (18/0) 24(75) 86 1019 / 30.09
 18:55 Partly Cloudy  SSW 15/0 (17/0) 24(76) 85 1019 / 30.09
 18:34 Partly Cloudy  SSW 16/0 (18/0) 24(76) 84 1019 / 30.09
 17:55 Mostly Cloudy  SW 13/0 (15/0) 25(77) 82 1020 / 30.11
 17:04 Mostly Cloudy  SSW 14/0 (16/0) 25(78) 81 1020 / 30.11
 16:55 Partly Cloudy  SSW 15/0 (17/0) 25(78) 80 1020 / 30.11
 15:55 Few Clouds  SSW 16/0 (18/0) 26(79) 78 1020 / 30.12
 14:55 Few Clouds  SSW 16/0 (18/0) 26(79) 78 1020 / 30.13
 13:55 Mostly Cloudy  SW 15/0 (17/0) 26(80) 76 1021 / 30.15
 12:55 Partly Cloudy  SSW 16/0 (18/0) 26(78) 78 1021 / 30.15
 11:55 Partly Cloudy  SSW 17/0 (20/0) 25(78) 80 1021 / 30.16
 11:20 Mostly Cloudy  SSW 15/0 (17/0) 24(76) 85 1021 / 30.16
 10:55 Mostly Cloudy  SSW 16/0 (18/0) 23(74) 90 1021 / 30.16
 10:46 Mostly Cloudy  SSW 15/0 (17/0) 23(74) 90 1021 / 30.16
 10:11 Overcast Drizzle SSW 15/0 (17/0) 23(73) 90 1021 / 30.16
 09:56 Overcast Drizzle SSW 16/0 (18/0) 24(74) 87 1021 / 30.16
 09:55 Overcast Showers SSW 16/0 (18/0) 24(75) 85 1021 / 30.16
 08:55 Overcast  SSW 15/0 (17/0) 23(74) 87 1021 / 30.15
 07:55 Overcast  SSW 14/0 (16/0) 23(73) 89 1021 / 30.14
 06:55 Mostly Cloudy  SSW 13/0 (15/0) 23(73) 89 1020 / 30.12
 05:55 Mostly Cloudy  SSW 13/0 (15/0) 23(73) 89 1019 / 30.10
 04:55 Mostly Cloudy  SSW 14/0 (16/0) 23(73) 88 1020 / 30.11
 03:55 Mostly Cloudy  SW 15/0 (17/0) 23(73) 88 1020 / 30.11
 02:55 Mostly Cloudy  SSW 16/0 (18/0) 22(72) 88 1020 / 30.11
 01:55 Partly Cloudy  SW 16/0 (18/0) 23(73) 88 1020 / 30.13
Observations from our AWOS sites are available here (password and username are both 'guest').